"Pseudo-MPEC" for A1096pw

Created 2018 Oct 12 18:18:04 UT using Find_Orb

Click here for an explanation of pseudo-MPECs

 
 Astrometry: 
     A1096pw  C2018 10 05#%Astrometryls[j5y#=2xaHGsdWXS?a=xLd!RiHL$8Bm:Aq1u)0T05
     A1096pw  C2018 10 056+1%Ot](9yEkKdF#Sredacted;n)X`KKUFvfBZP2e;ODj#\sp[raT05
     A1096pw  C2018 10 05`\a=j0GJL'YM$FI^P[#ldH6g*/]?\x%:BbJCdNJF.wJ.b^[e*FgAT05
     A1096pw  C2018 10 05gq*Kjf#o+=lGAi2p9XXj\fjDJc/QPmZrseeGGvp,mbSi,?9yQqj3T05
     A1096pw  C2018 10 05]41anOptZB6[:]\jTh^puMofF7F4t4y5)N,W.`yyA:\W*6yNEOCPT05

Station data:
(T05) ATLAS-HKO, Haleakala  (N20.707573 W156.257010)  US/Hawaii.  Observers
   L. Denneau, A. Heinze, H. Weiland, B. Stalder, J. Tonry, A. Sherstyuk.
   Measurers L. Denneau, A. Heinze, J. Tonry. 0.5-m f/2.0 Schmidt + CCD.

Orbital elements:  A1096pw
   Perihelion 2018 Sep 14.976182 TT = 23:25:42 (JD 2458376.476182)
Epoch 2018 Oct  5.0 TT = JDT 2458396.5   Earth MOID: 0.0040   Ju: 0.5011
M   0.94239                         Sa: 0.2161                AutoNEOCP
n   0.04706371     Peri.  334.59815
a   7.59763745     Node     8.87988
e   0.8748356      Incl.   16.49871
P  20.94           H   25.3     G   0.15   q 0.95095308  Q 14.2443218
From 5 observations 2018 Oct. 5 (44.9 min); mean residual 1".25
Residuals in arcseconds: 
181005 T05  .09-  .07-    181005 T05  .00   .00     181005 T05  .21+  .17+    
181005 T05  1.8+  .25-    181005 T05  3.5+  .13-    

Ephemerides (geocentric):
Date (UTC) HH   RA              Dec         delta   r     elong  mag
---- -- -- --  -------------   -----------  ------ ------ -----  ---
2018 10 12 18  01 24 15.648   +60 08 13.61  .08792 1.0535 127.3 22.0
2018 10 12 19  01 24 26.312   +60 07 26.88  .08832 1.0538 127.3 22.0
2018 10 12 20  01 24 36.870   +60 06 40.37  .08873 1.0541 127.3 22.0
2018 10 12 21  01 24 47.323   +60 05 54.08  .08913 1.0544 127.4 22.0
2018 10 12 22  01 24 57.672   +60 05 08.02  .08954 1.0547 127.4 22.0
2018 10 12 23  01 25 07.919   +60 04 22.17  .08994 1.0550 127.4 22.0
2018 10 13 00  01 25 18.066   +60 03 36.54  .09035 1.0553 127.4 22.1
2018 10 13 01  01 25 28.113   +60 02 51.13  .09075 1.0556 127.5 22.1
2018 10 13 02  01 25 38.062   +60 02 05.92  .09116 1.0558 127.5 22.1
2018 10 13 03  01 25 47.915   +60 01 20.92  .09156 1.0561 127.5 22.1
2018 10 13 04  01 25 57.673   +60 00 36.13  .09197 1.0564 127.6 22.1
2018 10 13 05  01 26 07.337   +59 59 51.54  .09237 1.0567 127.6 22.1
2018 10 13 06  01 26 16.909   +59 59 07.16  .09278 1.0570 127.6 22.1
2018 10 13 07  01 26 26.389   +59 58 22.97  .09318 1.0573 127.6 22.1
2018 10 13 08  01 26 35.780   +59 57 38.97  .09359 1.0576 127.7 22.1
2018 10 13 09  01 26 45.081   +59 56 55.17  .09400 1.0579 127.7 22.1
2018 10 13 10  01 26 54.295   +59 56 11.56  .09440 1.0582 127.7 22.1
2018 10 13 11  01 27 03.423   +59 55 28.14  .09481 1.0585 127.8 22.2
2018 10 13 12  01 27 12.466   +59 54 44.90  .09521 1.0588 127.8 22.2
2018 10 13 13  01 27 21.424   +59 54 01.84  .09562 1.0591 127.8 22.2
2018 10 13 14  01 27 30.300   +59 53 18.97  .09602 1.0593 127.8 22.2
2018 10 13 15  01 27 39.094   +59 52 36.27  .09643 1.0596 127.9 22.2
2018 10 13 16  01 27 47.807   +59 51 53.76  .09684 1.0599 127.9 22.2
2018 10 13 17  01 27 56.440   +59 51 11.41  .09724 1.0602 127.9 22.2
2018 10 13 18  01 28 04.994   +59 50 29.24  .09765 1.0605 127.9 22.2
2018 10 13 19  01 28 13.471   +59 49 47.24  .09805 1.0608 128.0 22.2
2018 10 13 20  01 28 21.872   +59 49 05.41  .09846 1.0611 128.0 22.2
2018 10 13 21  01 28 30.197   +59 48 23.74  .09886 1.0614 128.0 22.2
2018 10 13 22  01 28 38.447   +59 47 42.23  .09927 1.0617 128.1 22.2
2018 10 13 23  01 28 46.623   +59 47 00.89  .09968 1.0620 128.1 22.3
2018 10 14 00  01 28 54.727   +59 46 19.71  .10008 1.0623 128.1 22.3
2018 10 14 01  01 29 02.759   +59 45 38.68  .10049 1.0626 128.1 22.3
2018 10 14 02  01 29 10.720   +59 44 57.81  .10089 1.0629 128.2 22.3
2018 10 14 03  01 29 18.611   +59 44 17.09  .10130 1.0632 128.2 22.3
2018 10 14 04  01 29 26.433   +59 43 36.53  .10171 1.0635 128.2 22.3
2018 10 14 05  01 29 34.186   +59 42 56.11  .10211 1.0638 128.2 22.3
2018 10 14 06  01 29 41.873   +59 42 15.84  .10252 1.0641 128.3 22.3
2018 10 14 07  01 29 49.492   +59 41 35.72  .10292 1.0644 128.3 22.3
2018 10 14 08  01 29 57.046   +59 40 55.74  .10333 1.0647 128.3 22.3
2018 10 14 09  01 30 04.535   +59 40 15.91  .10374 1.0650 128.4 22.3
2018 10 14 10  01 30 11.960   +59 39 36.22  .10414 1.0653 128.4 22.3
2018 10 14 11  01 30 19.321   +59 38 56.66  .10455 1.0656 128.4 22.3
2018 10 14 12  01 30 26.620   +59 38 17.24  .10495 1.0659 128.4 22.4
2018 10 14 13  01 30 33.857   +59 37 37.96  .10536 1.0662 128.5 22.4
2018 10 14 14  01 30 41.033   +59 36 58.81  .10577 1.0665 128.5 22.4
2018 10 14 15  01 30 48.149   +59 36 19.79  .10617 1.0668 128.5 22.4
2018 10 14 16  01 30 55.205   +59 35 40.90  .10658 1.0671 128.5 22.4
2018 10 14 17  01 31 02.202   +59 35 02.14  .10699 1.0674 128.6 22.4